Location: Burgwalden
(48.2830°N, 10.7576°E)
Time: 02:57:09
(UTC+00:00)

IRS-1D - Pass Details

Date: 26 September 2023
Orbit: 738 x 815 km, 98.7° (Epoch: 04 December)

Event Time Altitude Azimuth Distance (km) Brightness Sun altitude
Rises 03:13:21 0° 11° (N) 3,356 7.3 -19.6°
Reaches altitude 10° 03:15:45 10° 8° (N) 2,418 6.4 -19.2°
Maximum altitude 03:20:59 57° 291° (WNW) 954 3.7 -18.4°
Enters shadow 03:23:40 28° 224° (SW) 1,484 4.5 -18.0°
